Paso Robles, CA

10:58 AM PDT on March 30, 2017 (GMT -0700)
Paso Robles Municipal

Weather History for KPRB - July, 2013

Change the Weather History Date:

Tuesday, July 2, 2013

  Actual Average Record
Temperature  
Mean Temperature 83 °F 72 °F  
Max Temperature 103 °F 91 °F 111 °F (2001)
Min Temperature 62 °F 53 °F 44 °F (1963)
Degree Days  
Heating Degree Days 0 0  
Month to date heating degree days 0 0  
Since 1 June heating degree days 5 27  
Since 1 July heating degree days 0 0  
Cooling Degree Days 18 7  
Month to date cooling degree days 38 14  
Year to date cooling degree days 393 225  
Since 1 June cooling degree days 263 157  
Growing Degree Days 32 (Base 50)    
Moisture  
Dew Point 52 °F    
Average Humidity 42    
Maximum Humidity 67    
Minimum Humidity 16    
Precipitation  
Precipitation 0.00 in 0.00 in 0.11 in (1980)
Month to date precipitation 0.00 0.00  
Year to date precipitation 1.46 8.79  
Since 1 July precipitation 0.00  
Sea Level Pressure  
Sea Level Pressure 29.89 in    
Wind  
Wind Speed 9 mph (SSW)    
Max Wind Speed 25 mph    
Max Gust Speed 31 mph    
Visibility 10 miles    
Events      
T = Trace of Precipitation, MM = Missing Value Source: NWS Daily Summary

Daily Weather History Graph

Daily Weather History Graph

Search for Another Location

Airport or City:

Trip Planner

Search our weather history database for the weather conditions in past years. The results will help you decide how hot, cold, wet, or windy it might be!

Date:

Astronomy

Jul. 02, 2013 Rise Set
Actual Time 5:50 AM PDT 8:22 PM PDT
Civil Twilight 5:21 AM PDT 8:52 PM PDT
Nautical Twilight 4:44 AM PDT 9:29 PM PDT
Astronomical Twilight 4:03 AM PDT 10:09 PM PDT
Moon 1:50 AM PDT (7/2) 3:45 PM PDT (7/2)
Length of Visible Light 15h 31m
Length of Day
14h 31m
Waning Crescent, 25% of the Moon is Illuminated
Jul 2
Waning Crescent
Jul 8
New
Jul 15
First Quarter
Jul 22
Full
Jul 29
Last Quarter

Hourly Weather History & Observations

Time (PDT) Temp. Heat Index Dew Point Humidity Pressure Visibility Wind Dir Wind Speed Gust Speed Precip Events Conditions
12:53 AM 69.1 °F - 54.0 °F 58% 29.86 in 10.0 mi Calm Calm - N/A   Clear
1:53 AM 66.9 °F - 52.0 °F 59% 29.86 in 10.0 mi Calm Calm - N/A   Clear
2:53 AM 64.9 °F - 53.1 °F 65% 29.86 in 10.0 mi East 3.5 mph - N/A   Clear
3:53 AM 64.0 °F - 52.0 °F 65% 29.86 in 10.0 mi Calm Calm - N/A   Clear
4:53 AM 63.0 °F - 52.0 °F 67% 29.87 in 10.0 mi Calm Calm - N/A   Clear
5:53 AM 63.0 °F - 51.1 °F 65% 29.88 in 10.0 mi Calm Calm - N/A   Clear
7:53 AM 72.0 °F - 54.0 °F 53% 29.90 in 10.0 mi SSE 5.8 mph - N/A   Clear
8:53 AM 79.0 °F - 54.0 °F 42% 29.90 in 10.0 mi SSE 4.6 mph - N/A   Clear
9:53 AM 87.1 °F - 52.0 °F 30% 29.91 in 10.0 mi SW 12.7 mph - N/A   Clear
10:53 AM 90.0 °F - 51.1 °F 26% 29.91 in 10.0 mi SSW 12.7 mph - N/A   Clear
11:53 AM 96.1 °F - 48.9 °F 20% 29.90 in 10.0 mi SW 9.2 mph 18.4 mph N/A   Clear
12:53 PM 100.9 °F - 46.9 °F 16% 29.89 in 10.0 mi SW 11.5 mph - N/A   Clear
1:53 PM 100.9 °F - 50.0 °F 18% 29.88 in 10.0 mi SSW 18.4 mph - N/A   Clear
2:53 PM 95.0 °F - 52.0 °F 23% 29.89 in 10.0 mi SSW 19.6 mph 24.2 mph N/A   Clear
3:53 PM 90.0 °F 87.7 °F 54.0 °F 29% 29.88 in 10.0 mi SSW 20.7 mph 26.5 mph N/A   Clear
4:53 PM 87.1 °F 84.9 °F 53.1 °F 31% 29.90 in 10.0 mi SSW 19.6 mph 25.3 mph N/A   Clear
5:53 PM 84.0 °F 82.6 °F 54.0 °F 35% 29.90 in 10.0 mi SW 13.8 mph - N/A   Clear
6:53 PM 82.0 °F 81.2 °F 53.1 °F 37% 29.89 in 10.0 mi SSW 12.7 mph - N/A   Clear
7:53 PM 80.1 °F 79.9 °F 53.1 °F 39% 29.90 in 10.0 mi SSW 12.7 mph - N/A   Clear
8:53 PM 77.0 °F - 53.1 °F 43% 29.90 in 10.0 mi South 11.5 mph - N/A   Clear
9:53 PM 75.0 °F - 53.1 °F 46% 29.92 in 10.0 mi SSW 8.1 mph - N/A   Clear
10:53 PM 73.0 °F - 53.1 °F 49% 29.92 in 10.0 mi South 5.8 mph - N/A   Clear
11:53 PM 71.1 °F - 53.1 °F 53% 29.91 in 10.0 mi West 5.8 mph - N/A   Clear